Lapse_Rate
5.1 1.4 0.7 1.6 2.4 2.6 2.8 3.4 3.3 3.4 3.5 3.7 3.8 4.0 4.1 4.4 4.4 4.3 4.3 4.5 4.4 4.6 4.9 4.6 4.5 4.5 4.4 4.2 4.0 3.7 3.6 3.6 3.8 4.0 4.4 4.6 4.8 4.6 5.3 5.8 5.3 4.4 4.1
4.3 2.0 0.8 1.7 2.1 2.8 3.1 3.4 3.5 3.4 3.7 3.9 3.9 4.0 4.1 4.4 4.4 4.3 4.3 4.4 4.4 4.4 4.5 4.5 4.5 4.3 4.0 3.7 3.5 3.6 3.7 3.8 3.9 4.1 4.3 4.7 4.9 4.9 4.9 4.9 4.5 4.0 3.9
4.0 1.5 1.8 1.4 1.9 2.9 3.4 3.6 3.6 3.5 3.7 3.9 3.9 4.1 4.1 4.3 4.4 4.6 4.6 4.5 4.3 4.2 4.2 4.2 4.2 4.0 3.7 3.4 3.6 3.9 4.1 4.3 4.8 5.2 5.6 5.6 4.6 5.1 5.1 4.2 3.7 3.8 3.9
3.8 3.6 1.8 1.2 1.9 2.5 3.3 3.6 3.8 3.7 3.8 3.9 4.1 4.1 4.2 4.2 4.3 4.5 4.7 4.6 4.5 4.3 4.4 4.5 4.2 3.5 3.1 3.3 3.7 4.2 4.5 4.6 4.9 5.4 7.8 6.4 5.6 4.6 4.4 4.2 4.1 4.3 4.2
5.1 4.8 1.7 1.1 1.8 2.1 3.0 3.4 3.8 3.6 3.8 3.8 4.0 4.1 4.3 4.6 4.3 4.3 4.5 4.4 4.5 4.6 4.8 4.5 3.8 3.1 3.0 3.2 3.6 4.2 4.6 4.6 4.8 5.5 8.3 6.8 5.5 4.2 4.3 4.4 4.3 4.3 4.8
6.2 4.8 -0.0 0.7 1.2 1.6 2.8 3.3 3.5 3.5 3.6 3.6 3.9 4.1 4.1 4.6 4.5 4.4 4.2 4.2 4.4 4.6 4.6 4.1 3.4 3.0 3.0 3.2 3.6 4.3 4.1 4.1 4.1 5.6 8.5 8.2 5.4 4.2 4.2 3.7 4.3 4.1 4.5
7.5 2.2 1.1 0.5 0.8 1.3 2.5 3.2 3.4 3.3 3.3 3.6 3.7 3.8 3.9 3.9 4.0 4.2 4.3 4.3 4.3 4.3 3.9 3.5 3.2 3.3 3.3 3.4 3.7 4.0 4.2 4.1 4.2 7.4 8.7 6.1 4.3 4.1 3.9 3.7 3.6 3.6 4.0
5.8 3.7 1.6 0.7 0.9 1.3 1.8 2.8 3.3 3.2 3.0 3.3 3.5 3.5 3.7 3.6 3.6 3.9 4.0 4.2 4.3 4.0 3.6 3.4 3.5 3.4 3.4 3.4 3.5 3.7 3.6 3.4 4.7 6.6 7.9 4.8 3.9 4.1 4.1 3.8 3.6 3.5 3.7
6.0 4.3 2.8 1.9 1.5 1.5 1.8 2.3 2.9 2.9 3.0 3.1 3.2 3.3 3.5 3.6 3.5 3.6 3.7 3.9 4.0 3.9 3.9 3.8 3.7 3.6 3.6 3.6 4.0 4.2 4.5 4.4 3.7 5.8 6.4 4.0 3.6 3.8 3.9 3.7 3.6 3.6 3.6
6.0 3.5 3.1 3.0 2.2 2.2 1.8 2.2 2.4 2.8 2.9 2.9 3.0 2.9 3.2 3.4 3.3 3.5 3.5 3.7 3.9 3.9 4.0 3.8 3.8 3.8 3.8 3.9 4.0 4.0 4.8 4.7 5.0 6.9 6.2 4.4 3.9 4.2 4.0 3.7 3.7 3.7 3.6
7.0 4.1 3.7 3.5 3.5 3.4 3.2 2.2 2.2 2.6 2.8 2.8 2.7 2.8 2.7 4.0 3.4 2.9 4.1 4.0 3.7 4.0 4.1 4.0 3.9 3.9 3.8 3.8 4.1 4.2 4.7 5.1 6.9 8.1 5.0 3.8 3.6 4.0 4.1 3.6 3.4 3.5 3.7
7.9 5.2 4.3 4.0 3.9 4.2 5.3 2.8 3.1 3.2 2.9 3.2 3.7 2.4 4.0 5.4 4.8 5.0 5.2 4.2 3.8 3.8 4.0 3.9 3.9 3.9 3.9 5.2 4.7 4.9 4.6 6.5 8.7 7.9 4.5 3.5 3.7 4.0 4.1 3.7 3.5 3.3 3.3
8.7 6.8 4.9 4.4 4.3 4.7 6.2 3.2 4.1 4.1 4.2 4.3 4.6 3.9 4.7 6.1 5.8 7.2 3.8 3.8 3.0 3.2 3.6 3.5 3.3 3.5 5.2 6.0 8.3 5.5 6.4 7.8 9.1 8.7 4.3 3.4 3.7 4.0 4.3 4.0 3.7 3.5 3.5
8.6 8.0 6.1 5.6 4.7 4.7 8.3 4.9 4.7 4.8 4.6 4.6 5.1 4.9 5.1 6.3 7.0 6.5 5.7 4.9 4.2 3.8 4.3 4.5 5.0 5.0 5.7 6.8 7.8 8.4 8.6 8.4 7.9 7.5 3.6 4.1 4.2 4.3 4.1 4.1 3.8 3.6 3.5
8.3 8.3 7.6 6.2 4.8 5.0 7.1 6.7 5.9 5.3 4.9 5.1 5.3 5.2 5.6 6.3 6.5 7.4 7.6 6.8 4.9 5.1 4.4 5.3 5.4 5.7 5.9 6.5 7.2 7.6 7.7 8.1 7.8 7.6 5.5 4.7 5.0 4.6 4.5 4.3 4.1 3.8 3.6
8.0 7.9 7.7 7.6 5.2 5.1 5.9 6.9 6.3 6.9 5.8 6.1 6.0 5.7 5.5 6.4 7.3 7.3 6.6 7.2 6.7 6.2 4.9 5.6 6.1 5.8 6.1 6.5 5.8 7.3 7.0 7.5 7.7 7.5 7.4 5.0 5.2 4.9 4.6 4.5 4.4 4.4 4.3
7.6 7.8 6.8 7.4 6.4 5.0 5.2 6.9 7.2 7.7 7.6 6.9 7.4 7.1 5.6 6.3 7.3 7.4 6.6 6.3 7.3 7.6 7.7 6.9 6.7 7.2 6.1 6.8 6.4 6.5 6.6 6.8 6.5 6.7 7.6 7.8 5.5 5.1 4.8 4.6 4.5 4.4 4.4
8.0 7.3 6.7 8.5 7.3 5.8 5.4 6.4 8.0 7.8 7.3 7.2 7.5 7.7 6.4 6.0 6.6 6.7 6.5 6.3 8.0 7.8 7.3 6.0 5.9 6.0 5.9 6.0 5.9 5.7 5.8 6.6 6.4 6.2 6.9 7.3 7.4 5.1 4.2 4.4 4.4 4.5 4.2
8.5 7.0 6.3 6.8 7.2 5.7 5.6 6.2 7.2 6.8 7.4 7.8 7.7 7.7 7.0 5.8 6.1 5.8 6.1 6.0 7.4 6.5 6.0 6.2 5.8 5.9 6.0 5.9 6.1 5.8 5.8 5.8 5.8 8.1 7.0 6.8 7.1 7.6 6.2 4.9 4.2 4.3 4.5
8.3 6.7 5.8 5.9 6.9 6.0 6.5 6.3 7.1 7.9 7.8 7.9 7.6 7.2 6.8 5.9 5.1 5.4 5.9 5.5 6.7 6.4 5.8 6.0 6.0 5.7 5.7 5.8 8.3 7.7 5.0 5.2 4.7 4.9 5.5 7.6 7.3 7.4 7.6 7.0 4.0 3.2 3.5
7.2 6.6 5.6 5.3 5.7 6.8 6.7 6.6 7.2 6.6 7.8 7.7 7.4 7.3 6.9 6.2 5.0 4.5 4.9 4.8 5.2 6.4 5.9 4.9 5.3 5.6 5.6 5.4 5.7 5.2 4.8 4.6 4.8 4.7 5.1 5.0 5.7 6.7 6.8 7.4 6.6 4.3 4.8
6.5 6.3 5.7 4.5 5.0 6.4 6.1 5.8 6.0 6.9 7.1 7.2 7.2 7.0 7.2 6.9 5.5 4.1 4.0 4.3 4.5 5.8 5.4 4.7 5.3 5.4 5.5 5.1 5.8 5.4 5.0 4.7 4.8 4.4 4.3 4.9 4.1 5.4 5.8 6.7 7.5 7.2 7.2
6.5 5.4 6.5 4.7 4.2 5.0 5.7 7.0 7.4 7.4 7.4 7.7 7.6 7.0 6.5 6.4 6.0 3.9 3.3 4.0 4.2 4.8 4.9 4.5 4.3 5.0 5.3 4.8 5.0 5.0 5.4 4.7 4.8 4.2 4.6 4.4 4.5 4.0 4.3 5.3 6.8 7.3 7.5
6.6 5.7 6.5 6.2 4.8 4.1 4.5 6.0 6.4 6.8 6.8 6.4 6.0 6.7 5.8 5.9 6.2 5.6 4.2 4.0 4.2 4.9 5.0 4.4 4.5 4.4 4.7 5.2 5.1 6.1 5.1 4.4 4.8 4.9 4.1 3.9 3.7 4.4 3.9 3.7 4.4 5.5 5.6
6.4 5.0 4.6 5.9 6.3 4.9 4.1 5.1 5.2 6.7 7.0 6.3 7.1 6.8 6.3 5.9 5.7 5.7 5.0 4.1 3.8 4.9 5.1 4.8 5.0 4.4 4.8 4.9 5.1 5.2 5.7 5.3 4.7 4.4 5.4 4.2 4.3 4.4 4.2 3.9 3.2 2.8 2.6
6.3 4.8 3.8 4.3 5.4 6.0 4.6 3.6 4.7 5.3 5.8 7.0 6.8 6.9 6.6 6.5 5.9 5.4 5.1 4.4 4.5 4.5 5.1 5.1 5.1 5.1 4.9 4.9 4.9 5.1 5.3 5.7 5.6 5.4 5.5 5.4 5.4 4.1 3.5 3.5 3.2 2.7 2.9
Wind_Speed
15 19 22 19 20 19 20 19 20 19 17 16 15 14 15 15 16 17 18 19 19 18 18 17 17 18 20 20 21 20 20 22 22 20 19 18 17 14 12 22 20 19 18
19 21 21 21 20 20 20 19 20 20 17 15 16 15 15 15 15 16 17 19 19 18 18 18 17 18 18 18 18 17 17 19 21 20 18 18 18 18 19 24 19 16 16
18 21 21 22 20 20 20 19 20 20 18 16 16 15 16 15 14 14 15 17 17 18 18 18 17 16 16 16 16 15 15 16 18 23 21 17 15 17 19 18 15 15 15
19 20 20 20 21 18 20 20 20 19 19 16 15 15 15 15 15 14 14 15 15 16 17 17 17 16 14 15 13 11 12 12 12 10 10 17 15 14 14 13 13 13 13
17 21 21 20 21 19 19 20 19 19 18 16 16 15 13 13 14 14 15 15 14 15 15 15 15 14 14 12 9 8 9 9 8 8 12 18 15 11 11 11 11 9 10
17 22 22 21 21 19 19 20 19 20 19 17 15 14 14 13 12 13 15 16 15 14 14 14 14 13 12 9 7 6 3 3 6 11 18 17 17 12 9 10 14 12 12
16 22 23 21 21 20 19 20 19 21 20 18 15 14 14 13 12 12 13 13 15 16 15 14 13 13 10 7 4 3 5 7 9 7 14 19 16 11 9 9 10 10 10
17 18 21 20 19 21 21 20 20 19 20 18 16 14 14 14 14 14 12 12 13 14 15 16 15 12 8 5 2 4 7 9 11 13 19 19 16 11 9 8 8 8 8
17 14 17 18 19 19 22 22 22 20 19 18 17 15 13 13 14 13 13 12 14 15 16 15 13 11 9 6 3 6 9 11 11 12 19 19 18 14 11 9 8 7 7
15 14 12 17 17 17 15 21 22 21 19 18 17 15 14 13 13 12 12 12 13 15 16 15 11 9 7 6 5 6 11 14 13 14 21 19 21 16 11 9 8 7 7
13 14 11 12 16 16 16 15 19 19 19 17 16 15 15 13 13 13 13 15 13 13 15 14 10 8 7 8 8 8 11 14 16 7 14 29 24 19 15 13 11 9 8
17 16 14 13 13 16 16 17 15 16 14 15 15 14 13 14 17 17 16 18 15 13 13 12 9 8 9 11 14 12 11 16 11 2 16 27 23 20 16 14 13 12 11
18 14 16 14 15 15 11 16 14 14 14 15 18 17 15 15 17 13 14 14 13 14 12 12 11 10 13 16 10 14 16 17 6 11 21 26 24 20 16 15 14 13 13
20 19 18 17 15 13 13 13 14 12 15 13 16 18 15 10 11 11 13 15 15 15 14 15 13 14 17 18 15 9 5 5 11 9 19 25 23 22 20 17 15 15 16
20 19 20 19 16 14 10 12 12 10 14 16 17 19 17 11 5 11 10 15 16 16 15 11 13 13 13 14 14 9 7 6 9 13 11 20 20 21 21 19 18 17 17
20 20 18 19 17 16 13 12 11 13 17 15 17 19 21 15 8 9 6 8 14 16 18 15 10 8 8 11 8 9 7 9 11 12 14 16 20 21 22 21 19 18 17
19 20 20 18 18 17 16 9 11 12 16 12 15 19 23 19 12 11 6 5 10 17 16 16 14 12 5 8 7 9 11 12 12 12 12 11 19 22 25 25 24 22 21
20 21 21 17 19 18 16 11 9 10 11 13 14 18 22 23 17 11 6 6 12 12 13 5 5 5 5 5 5 5 5 11 12 16 16 15 13 15 25 29 29 29 27
21 21 21 19 19 19 15 12 9 9 9 10 16 14 19 23 22 10 7 7 14 6 5 6 5 5 4 5 5 5 5 5 6 13 12 17 20 20 13 24 32 31 30
20 21 21 17 16 18 12 12 10 9 9 13 9 14 18 21 23 17 9 9 11 7 5 5 7 6 5 5 8 8 6 6 5 5 6 13 16 19 21 17 22 23 32
17 21 22 19 16 14 13 12 12 13 11 11 11 14 18 20 22 17 11 9 7 9 10 8 5 7 6 5 3 4 4 6 7 6 6 6 8 14 17 18 16 16 18
14 20 21 22 19 15 13 12 12 11 11 11 10 11 16 17 21 15 15 13 12 9 10 8 9 5 6 5 6 2 4 4 6 6 6 7 8 10 10 15 16 17 18
17 15 20 22 22 18 17 10 10 9 8 9 11 13 13 17 19 19 16 13 12 11 10 10 7 12 9 7 7 5 3 5 3 5 11 10 10 6 6 10 11 17 15
19 14 18 19 21 20 20 16 16 14 14 14 13 12 14 16 16 17 15 16 14 10 13 11 9 7 8 8 4 9 9 1 2 3 1 7 6 6 6 5 4 3 6
15 12 9 14 20 21 21 20 16 16 13 11 10 14 14 14 17 17 17 16 16 12 12 13 12 13 10 9 7 5 9 8 6 4 6 4 3 4 4 4 4 4 3
12 15 14 14 12 21 22 23 20 21 18 13 13 12 12 12 12 17 18 17 15 15 14 12 13 14 13 11 10 9 5 7 8 6 7 7 7 4 4 4 4 3 7
Wind_Direction
118 126 120 121 120 127 129 132 126 124 122 117 108 97 93 92 94 98 101 102 105 107 105 100 93 89 89 87 84 84 89 93 98 98 96 92 94 91 93 105 99 94 94
124 126 124 127 127 134 133 132 129 127 125 122 110 104 99 97 101 107 111 112 112 111 108 103 99 97 95 94 93 98 104 109 111 107 98 88 81 83 81 81 91 95 92
122 127 129 132 130 136 135 135 132 132 132 127 117 116 109 104 106 106 109 113 116 117 116 115 110 107 103 100 107 116 121 126 132 134 126 96 81 82 82 86 93 92 90
127 134 136 138 139 138 138 138 137 137 133 131 124 120 119 119 116 115 113 113 117 120 121 119 117 118 115 113 120 130 138 147 153 167 122 114 103 97 99 96 110 103 97
133 135 135 141 147 142 141 139 140 136 133 134 130 126 123 122 122 123 124 125 125 124 123 123 124 118 116 122 134 152 167 168 177 204 110 117 114 109 103 107 109 103 100
139 128 141 142 143 143 144 140 141 137 137 137 135 131 131 128 126 131 136 137 133 130 127 125 124 122 123 127 152 193 207 246 272 266 99 110 103 112 96 81 89 87 88
137 127 143 144 143 145 145 142 144 142 141 141 138 135 133 131 132 139 142 142 139 135 132 128 128 129 130 143 169 230 267 289 300 294 118 99 114 122 112 105 108 102 100
120 136 142 147 148 147 147 147 148 146 145 145 143 141 138 140 146 148 150 148 144 139 136 137 137 133 134 142 195 259 278 285 288 278 124 114 132 136 134 125 123 124 126
128 135 144 154 154 152 154 156 154 152 150 151 150 150 150 151 154 155 156 155 152 151 149 145 143 143 148 149 188 272 288 290 293 284 120 131 146 147 151 150 148 146 142
130 135 149 153 158 158 158 161 159 157 156 156 156 156 155 156 159 160 161 161 163 163 163 158 155 159 166 174 207 266 286 293 274 264 130 147 152 153 159 163 165 165 167
138 147 155 157 163 163 160 164 160 161 160 161 161 162 161 168 170 167 183 169 171 172 176 178 177 183 195 211 219 241 277 285 282 233 133 151 157 156 167 174 180 180 186
157 160 163 163 165 166 169 160 170 167 169 173 175 170 181 193 176 178 178 173 175 180 186 191 198 212 230 239 218 224 251 262 288 66 138 157 159 158 172 181 186 189 196
165 167 168 168 169 171 175 159 177 176 180 189 184 175 201 201 177 200 147 166 172 184 191 198 207 220 230 243 230 197 219 249 257 281 160 166 164 163 176 186 193 198 206
172 172 170 174 172 180 176 165 179 177 185 184 191 183 198 201 173 193 165 174 182 183 202 191 207 212 228 247 259 267 257 317 305 4 165 174 171 170 178 190 199 205 211
174 173 176 176 177 183 194 169 182 182 185 186 189 190 197 209 175 190 196 178 180 185 197 207 206 204 219 236 254 255 282 275 276 302 169 188 185 184 186 195 205 210 214
172 174 176 180 178 184 199 173 181 188 181 189 188 190 196 205 199 191 202 185 178 197 187 207 207 214 204 209 226 232 243 254 257 239 264 200 201 200 198 200 206 216 223
172 171 177 181 178 186 198 187 180 185 176 190 187 189 192 211 206 189 191 216 192 192 194 194 221 203 208 208 209 208 215 230 246 263 261 256 210 213 213 211 210 213 220
170 172 175 183 180 187 193 203 184 190 198 188 193 190 187 200 217 192 198 208 203 199 195 186 190 213 204 217 209 210 205 212 221 229 246 254 251 208 221 220 216 218 219
175 169 174 183 181 185 188 200 197 197 188 203 193 199 189 194 207 210 207 208 203 204 200 192 205 188 213 211 223 230 211 219 220 227 221 225 233 247 214 222 225 225 225
175 168 173 181 185 183 189 198 204 203 205 196 204 201 190 193 199 209 206 215 199 208 204 209 192 205 199 210 221 232 212 215 213 224 228 226 220 229 242 233 217 228 232
178 168 173 178 186 180 191 193 202 206 205 207 204 206 203 195 195 201 214 198 220 206 208 203 194 199 212 207 238 267 268 222 213 216 215 222 227 230 237 232 207 205 223
184 174 173 179 182 189 192 199 204 203 208 208 212 208 206 199 194 199 204 213 205 214 206 207 198 204 214 193 210 215 254 287 239 220 222 229 232 220 239 236 224 213 213
189 176 181 179 182 189 194 198 200 212 205 207 210 212 207 204 197 200 203 208 214 208 210 208 201 199 209 210 207 170 201 228 222 210 223 223 225 222 235 243 235 226 226
188 184 182 184 184 189 191 194 204 205 207 211 210 211 211 206 205 202 203 206 209 213 214 210 207 204 199 210 199 222 241 196 207 310 12 217 203 218 222 230 231 213 186
182 181 178 187 185 189 192 200 201 211 217 214 211 210 208 208 205 205 203 204 209 214 211 214 207 205 206 212 217 196 227 234 239 231 261 266 233 219 206 194 165 170 128
185 183 188 193 204 191 193 199 205 205 215 214 210 211 210 208 205 207 207 208 209 211 217 207 214 205 210 211 217 223 209 207 216 210 233 238 245 235 209 199 188 189 178